Theta_e
346 354 362 362 361 361 362 362 361 361 361 363 366 366 365 366 368 367 367 366 365 366 366 364 366 363 362 362 363 362 364 361 361 360 359 359 359 360 360 359 358 353 359
350 355 363 363 361 361 361 360 360 360 359 359 362 364 365 365 367 365 366 365 364 366 364 363 363 363 363 361 360 360 361 362 363 359 358 359 359 359 358 360 359 355 359
350 356 358 363 360 359 362 363 360 360 359 358 359 361 362 363 364 367 366 365 364 366 364 363 363 362 361 361 360 359 359 360 360 361 360 353 353 359 358 359 359 359 358
352 352 354 362 362 360 362 362 361 363 360 360 362 360 361 362 363 364 364 364 364 365 365 364 363 361 360 360 359 359 358 360 360 359 348 348 353 359 359 357 358 358 358
348 352 357 364 364 360 362 361 361 361 362 359 362 360 360 361 362 362 363 363 363 364 364 363 361 360 359 360 358 360 361 361 362 353 347 348 351 357 359 354 355 359 356
350 354 361 363 362 361 361 361 361 361 360 360 362 361 360 361 361 362 362 363 362 362 363 361 360 359 358 360 361 361 362 359 350 347 352 355 351 358 360 357 355 358 356
350 355 358 365 363 362 362 361 361 360 361 360 363 361 361 361 361 361 362 362 362 361 362 362 360 359 360 360 360 361 361 354 345 349 351 351 353 359 359 359 355 354 354
350 354 356 361 363 362 362 360 362 362 361 361 361 360 360 360 361 361 362 362 361 362 362 362 361 359 359 358 360 362 363 360 352 350 350 350 358 358 356 359 354 354 354
351 352 355 356 360 362 363 361 361 360 360 360 360 361 361 360 360 361 362 362 361 362 362 362 361 360 358 358 363 363 362 357 349 350 351 351 358 358 357 355 354 355 354
348 350 351 355 354 353 356 362 361 360 360 360 361 361 363 361 360 361 363 364 362 362 361 360 360 360 359 358 359 360 365 358 349 350 352 351 357 359 357 355 357 356 353
347 348 352 353 352 353 354 357 359 361 361 360 359 359 359 352 351 355 360 362 362 362 360 359 359 359 357 357 360 358 355 347 349 351 353 355 357 354 353 352 352 352 352
344 347 350 351 352 352 354 353 351 354 352 352 352 351 350 350 347 354 358 361 361 361 360 358 358 357 356 351 353 361 352 349 349 351 354 357 359 358 358 354 352 351 351
344 346 348 349 350 351 352 354 351 352 352 351 351 350 351 348 348 350 350 352 352 354 346 349 351 356 354 352 351 351 351 347 349 350 356 358 359 356 355 355 355 353 353
344 348 350 350 351 350 351 351 351 353 351 350 352 353 349 349 346 346 348 349 347 346 341 336 338 349 350 345 341 341 344 347 348 351 355 358 358 356 355 353 353 352 351
342 347 347 347 347 350 347 348 351 348 351 347 352 351 350 346 341 343 346 351 347 345 344 340 337 347 342 341 341 339 344 348 348 350 349 357 358 358 355 354 352 351 351
345 349 350 351 348 350 346 351 348 349 347 349 350 352 351 348 346 348 347 345 345 351 348 348 347 343 344 339 338 339 340 345 346 347 349 352 360 360 358 355 355 354 354
347 348 347 347 351 350 351 352 349 352 352 349 349 352 354 350 347 346 346 346 343 351 349 348 350 347 344 342 337 339 338 340 343 345 347 349 354 360 358 357 359 357 355
347 345 344 350 351 348 351 351 353 350 344 345 349 350 354 354 346 344 350 350 350 347 348 351 349 347 340 338 339 335 337 344 343 344 344 344 347 350 358 360 360 360 357
345 346 344 346 350 347 349 353 352 345 337 341 341 351 353 354 355 352 352 351 348 349 348 342 342 341 343 342 341 339 341 342 343 347 344 344 343 346 348 355 360 360 358
343 342 347 347 348 345 349 353 353 348 345 345 343 350 354 353 354 353 354 350 354 350 349 347 345 346 344 339 345 339 338 344 343 343 343 346 345 347 347 348 351 354 360
345 341 348 346 350 346 347 347 348 347 344 347 351 352 353 354 354 351 352 351 354 348 343 347 344 345 344 344 339 337 340 340 339 342 343 344 342 349 350 349 349 350 352
342 343 348 349 349 346 346 350 350 351 349 350 351 352 354 355 355 351 351 351 353 352 347 347 346 343 343 340 338 335 330 337 339 341 340 341 339 344 348 352 350 352 350
342 345 350 348 348 351 348 348 348 344 342 347 343 349 355 356 355 354 349 352 351 351 347 347 348 346 343 342 341 340 331 326 333 336 332 337 334 336 344 348 350 348 348
342 346 351 350 348 349 354 347 342 338 333 343 348 350 355 357 354 355 353 352 349 347 346 347 352 345 341 339 343 345 337 337 331 328 335 336 333 335 338 344 344 348 347
344 345 350 351 348 347 353 351 345 344 346 348 348 349 350 354 354 356 354 353 350 346 345 348 348 343 350 343 343 338 335 341 340 336 330 331 336 338 341 340 343 346 345
343 345 348 351 349 349 351 351 348 343 343 344 344 341 347 349 352 354 355 352 352 348 349 348 351 349 350 349 350 346 342 335 334 335 331 332 332 337 341 344 339 344 345
Wind_Speed
7 7 13 15 14 14 14 14 13 13 13 14 14 15 15 15 16 16 17 17 16 16 16 17 17 18 18 19 18 18 18 19 21 21 19 20 19 19 17 18 16 13 16
14 10 15 15 15 14 13 13 13 13 13 13 13 15 15 15 15 15 16 17 17 16 17 17 17 16 16 18 16 17 16 16 18 20 19 20 20 19 18 18 16 13 16
14 12 13 14 15 14 12 13 13 13 13 12 13 13 14 14 15 14 15 16 16 16 17 17 16 17 16 15 14 15 14 14 16 19 19 8 11 18 18 17 17 18 17
15 11 11 15 14 14 12 13 12 13 13 12 12 13 13 13 14 15 14 15 15 15 16 16 14 15 15 13 13 11 10 8 10 16 9 8 12 15 16 16 16 17 16
15 11 12 15 14 14 14 13 12 12 13 13 13 13 14 14 14 14 14 15 15 14 15 14 12 12 13 13 10 8 14 14 20 14 10 7 6 13 16 16 15 15 16
15 12 15 16 15 14 14 13 12 12 13 12 12 13 15 14 14 13 14 15 15 14 13 13 12 9 11 12 10 8 13 18 17 10 10 10 6 14 16 17 16 16 17
14 11 11 14 14 14 13 13 12 13 12 12 12 14 14 14 14 13 14 14 13 13 12 12 10 9 10 9 13 13 16 19 10 9 8 5 6 12 15 14 16 15 15
18 12 11 14 15 14 14 13 13 13 13 12 12 13 14 14 14 12 14 14 11 12 13 11 9 6 7 7 8 10 8 17 13 10 7 5 9 14 13 15 15 14 14
16 14 10 8 13 14 14 13 12 12 12 12 13 14 14 14 14 13 14 13 12 13 13 11 9 6 5 7 8 9 13 14 8 7 9 3 11 12 13 14 13 13 13
16 14 12 9 7 7 6 14 13 12 12 11 12 12 13 14 14 14 11 10 13 12 10 8 6 5 3 5 7 9 16 15 9 9 5 4 9 14 12 11 11 11 12
13 13 13 11 8 7 7 8 11 12 11 11 10 12 11 4 6 8 9 11 11 11 9 6 4 3 0 3 6 9 11 4 6 5 3 9 10 11 11 10 9 9 9
16 14 11 10 10 8 8 6 6 6 4 4 6 5 4 4 6 7 8 9 11 9 7 4 2 2 4 3 1 8 2 4 5 4 4 9 8 9 10 8 8 7 7
15 12 12 10 9 4 7 4 3 2 3 3 6 6 4 5 3 4 3 3 3 8 3 3 2 3 5 5 4 5 5 6 4 3 7 10 9 8 8 7 6 5 5
10 13 13 8 7 5 4 4 5 4 4 4 4 5 5 4 4 3 3 3 3 3 4 1 2 5 7 4 2 8 10 7 3 3 6 10 9 9 7 6 5 4 3
11 13 10 6 7 5 3 4 4 4 4 5 5 6 5 4 3 4 4 3 2 2 2 3 3 3 1 7 6 8 7 8 6 3 2 11 10 9 8 7 5 4 3
14 14 14 10 7 9 6 6 4 4 5 4 4 5 6 5 4 3 4 5 2 4 4 4 4 3 2 4 5 5 7 7 7 6 3 5 11 9 9 8 7 5 5
13 13 10 12 9 10 7 5 5 4 5 5 4 6 6 4 6 5 4 4 4 4 4 2 4 1 3 2 3 3 4 5 7 7 6 4 5 10 9 9 8 8 7
15 12 9 11 9 7 7 5 5 5 5 4 3 2 6 5 6 2 3 4 5 3 2 2 1 1 2 3 3 4 4 4 4 7 6 6 5 5 8 11 11 9 9
14 12 9 12 10 8 6 5 6 5 4 3 3 3 4 3 4 4 3 3 3 1 2 2 2 2 1 2 4 5 4 4 5 4 7 9 7 5 4 10 12 11 11
8 9 12 10 10 8 4 4 5 5 2 3 3 3 2 4 3 3 4 2 3 1 2 1 1 3 2 1 2 3 4 5 4 4 5 4 8 8 6 6 5 5 11
10 8 8 12 8 5 3 3 3 4 3 2 3 5 5 5 4 4 3 3 1 3 4 2 1 3 4 2 3 3 3 4 4 5 4 5 6 10 7 6 4 4 4
10 8 10 9 9 5 3 2 3 4 2 4 3 3 6 6 5 4 3 2 3 3 3 3 3 2 1 1 3 2 3 4 3 4 3 4 6 5 6 8 6 6 6
13 9 10 8 8 6 5 4 3 4 3 3 3 4 5 7 6 4 3 3 4 2 1 2 2 2 2 2 2 4 1 1 2 3 2 1 3 3 6 5 6 6 6
14 10 9 8 7 6 6 5 5 5 3 2 3 3 5 6 6 6 5 4 5 3 2 2 2 3 3 2 4 1 2 4 2 3 3 3 4 3 4 4 5 6 6
16 13 11 10 7 6 4 6 5 4 4 2 3 6 3 5 6 7 7 6 4 2 2 1 1 3 2 1 1 3 2 2 1 2 3 4 3 4 4 4 6 5 6
16 14 13 13 8 7 6 7 7 7 7 4 2 1 2 3 4 4 7 6 6 3 4 3 2 3 2 1 1 2 1 1 3 1 0 3 4 5 4 4 5 5 3
Wind_Direction
130 134 129 127 114 110 104 98 94 89 86 81 81 91 88 87 90 88 92 92 91 94 91 89 86 89 90 91 91 95 100 101 93 91 95 87 90 83 85 86 80 79 81
131 130 121 123 115 110 107 106 100 96 93 93 88 84 91 85 92 92 92 94 95 97 99 99 97 96 96 96 102 103 106 109 100 94 90 88 87 86 81 84 81 87 83
129 129 122 116 116 115 116 114 106 104 100 99 98 93 92 91 93 92 94 97 99 101 102 104 105 103 102 104 112 113 109 121 100 99 96 90 85 81 86 84 80 81 78
133 125 125 124 121 123 113 112 113 109 103 99 101 100 98 94 92 93 93 95 95 99 98 103 105 106 109 114 102 107 118 123 126 94 92 75 84 93 90 83 87 85 82
126 123 129 129 128 125 119 115 113 111 105 104 101 109 108 101 103 100 98 97 97 90 97 102 103 106 111 99 89 83 111 107 92 93 84 84 90 98 95 86 86 87 83
119 128 135 139 132 124 124 120 114 110 111 110 111 107 107 108 104 102 103 103 102 101 103 104 106 108 98 84 71 81 110 102 93 86 79 72 72 86 89 94 84 75 81
122 130 137 133 128 128 124 123 119 113 111 110 108 110 110 109 108 107 102 99 97 103 108 101 106 102 85 70 76 75 93 103 94 87 86 83 86 95 90 87 86 84 83
133 130 130 136 136 131 131 123 121 116 114 112 108 108 109 108 107 106 104 101 103 107 118 115 110 102 100 89 78 61 73 108 98 93 84 73 92 89 91 89 85 84 84
131 128 131 140 132 130 129 128 123 123 118 120 119 115 113 115 112 110 103 105 115 120 129 130 136 140 127 101 83 71 85 107 101 113 102 77 87 100 87 82 90 91 84
138 142 140 132 123 129 134 133 129 125 125 125 124 122 119 119 112 113 107 112 118 119 126 128 149 146 156 126 113 101 109 111 100 92 94 99 101 89 92 92 96 81 97
144 146 144 150 153 141 129 143 133 136 131 128 134 135 126 124 119 101 121 121 121 121 122 141 167 150 165 274 138 125 126 85 96 102 103 111 111 102 101 99 92 91 89
148 150 148 143 144 155 144 147 147 144 136 146 134 146 149 148 129 126 132 122 107 119 132 130 202 224 234 234 184 154 134 143 109 125 123 122 115 111 112 104 103 101 96
150 143 147 147 152 153 137 156 145 151 158 162 157 151 136 103 111 116 128 136 132 107 41 346 285 249 266 277 252 174 162 151 140 134 135 133 131 124 125 126 128 121 113
117 118 135 143 126 128 138 144 161 162 180 156 170 158 132 132 136 134 163 145 143 167 170 194 295 251 251 242 214 112 132 125 118 137 154 144 143 148 150 150 153 144 129
135 130 143 141 137 158 159 170 177 180 177 163 156 146 119 131 125 151 188 196 192 240 99 224 216 261 72 61 49 90 120 119 141 155 158 157 165 170 170 173 178 183 182
145 136 151 146 143 154 183 158 151 151 142 144 122 145 142 152 175 202 81 119 164 214 213 212 212 107 41 81 70 76 114 141 154 153 170 177 180 188 191 190 199 210 220
140 143 141 130 145 150 155 141 134 92 79 65 26 115 121 142 115 106 109 143 183 192 180 88 52 9 105 147 147 121 116 128 147 162 175 193 191 196 206 213 216 218 223
140 150 153 130 133 158 158 152 115 141 117 108 69 342 96 116 121 119 74 157 195 166 123 54 87 41 118 183 174 185 160 185 180 156 170 181 183 195 215 224 225 225 233
152 155 148 141 144 163 149 128 122 151 137 107 146 107 136 129 123 133 178 173 158 43 178 188 72 105 303 199 203 195 185 195 194 210 180 192 180 199 195 224 225 227 235
154 147 144 141 143 159 138 105 140 121 113 132 199 124 243 159 175 162 176 182 89 138 124 91 222 220 158 152 265 196 174 212 215 205 217 188 182 190 200 208 210 225 235
145 137 133 137 146 142 137 159 163 160 166 125 167 187 209 170 160 121 140 135 131 153 204 134 58 32 31 332 53 355 325 245 197 214 200 228 173 190 191 202 195 207 223
146 142 133 139 140 165 163 98 142 111 71 132 164 182 195 167 164 155 133 141 194 140 137 92 76 21 15 290 124 78 5 330 333 281 170 181 219 169 190 210 195 196 204
150 145 140 151 156 168 123 108 68 68 71 145 175 191 170 161 172 164 161 223 138 110 134 144 88 62 16 325 225 143 78 263 317 314 322 175 222 161 197 199 204 203 199
157 145 136 156 174 184 153 150 150 172 144 215 194 159 153 164 172 178 153 113 127 134 111 203 166 120 97 359 334 302 215 156 124 351 333 284 267 252 178 207 204 213 219
157 159 153 162 187 184 196 157 145 145 118 197 121 120 132 170 182 177 150 156 143 155 161 323 130 134 106 100 49 328 341 355 155 150 261 288 328 273 245 201 200 208 227
165 162 160 157 185 185 177 170 146 163 163 134 113 157 178 185 191 177 158 151 161 184 166 214 203 126 108 51 52 50 79 40 344 35 30 277 214 252 229 233 183 209 219